SCX426 KLAX-KMSP

Flight info

Callsign SCX426
Flight time 3h 14m
Altitude 39000
Route ORCKA5 LAS BAWER LARVE EKR BFF SSWAN TORGY4
Aircraft B738/M-SDE2E3FGHIRWXY/LB1

Departure

Time 2026-05-06 22:17
Airport Los Angeles International Airport (KLAX)

Arrival

Time 2026-05-07 01:32
Airport Minneapolis–Saint Paul International Airport / Wold–Chamberlain Field (KMSP)
Time Latitude Longitude Altitude Speed Heading
2026-05-06 21:33 33.94560 -118.41459 94 ft 0 kts 272°
2026-05-06 22:00 33.94558 -118.41440 114 ft 4 kts 294°
2026-05-06 22:00 33.94550 -118.41426 114 ft 0 kts 334°
2026-05-06 22:00 33.94571 -118.41467 94 ft 0 kts 263°
2026-05-06 22:03 33.94572 -118.41454 94 ft 4 kts 267°
2026-05-06 22:04 33.94570 -118.41423 94 ft 4 kts 285°
2026-05-06 22:04 33.94561 -118.41394 94 ft 4 kts 304°
2026-05-06 22:04 33.94543 -118.41371 94 ft 4 kts 326°
2026-05-06 22:04 33.94519 -118.41358 93 ft 3 kts 352°
2026-05-06 22:05 33.94517 -118.41358 93 ft 0 kts 353°
2026-05-06 22:12 33.94521 -118.41359 94 ft 4 kts 353°
2026-05-06 22:12 33.94567 -118.41365 94 ft 8 kts 353°
2026-05-06 22:13 33.94632 -118.41375 93 ft 11 kts 353°
2026-05-06 22:13 33.94713 -118.41386 97 ft 12 kts 353°
2026-05-06 22:13 33.94781 -118.41370 99 ft 10 kts 57°
2026-05-06 22:13 33.94792 -118.41289 99 ft 11 kts 82°
2026-05-06 22:14 33.94805 -118.41160 99 ft 19 kts 84°
2026-05-06 22:14 33.94824 -118.40980 100 ft 23 kts 82°
2026-05-06 22:14 33.94843 -118.40792 99 ft 22 kts 83°
2026-05-06 22:14 33.94860 -118.40627 99 ft 19 kts 83°
2026-05-06 22:15 33.94876 -118.40475 97 ft 18 kts 83°
2026-05-06 22:15 33.94892 -118.40327 99 ft 18 kts 82°
2026-05-06 22:15 33.94906 -118.40195 98 ft 14 kts 84°
2026-05-06 22:15 33.94916 -118.40082 99 ft 13 kts 83°
2026-05-06 22:16 33.94927 -118.39979 99 ft 12 kts 83°
2026-05-06 22:16 33.94977 -118.39913 103 ft 11 kts
2026-05-06 22:16 33.95039 -118.39926 108 ft 4 kts 315°
2026-05-06 22:16 33.95042 -118.39958 108 ft 0 kts 263°
2026-05-06 22:17 33.95040 -118.39974 108 ft 11 kts 263°
2026-05-06 22:17 33.94995 -118.40402 107 ft 92 kts 262°
2026-05-06 22:17 33.94883 -118.41469 144 ft 157 kts 262°
2026-05-06 22:17 33.94749 -118.42830 865 ft 168 kts 261°
2026-05-06 22:18 33.94598 -118.44256 1899 ft 174 kts 262°
2026-05-06 22:18 33.94447 -118.45770 2539 ft 199 kts 263°
2026-05-06 22:18 33.94276 -118.47487 2909 ft 215 kts 264°
2026-05-06 22:18 33.94090 -118.49386 2996 ft 235 kts 264°
2026-05-06 22:19 33.93894 -118.51399 3122 ft 254 kts 264°
2026-05-06 22:19 33.93690 -118.53559 3776 ft 263 kts 265°
2026-05-06 22:19 33.93504 -118.55777 4573 ft 269 kts 265°
2026-05-06 22:19 33.92830 -118.57891 5321 ft 278 kts 232°
2026-05-06 22:20 33.91271 -118.59277 6073 ft 286 kts 200°
2026-05-06 22:20 33.89314 -118.59613 6851 ft 288 kts 173°
2026-05-06 22:20 33.87410 -118.58913 7563 ft 288 kts 146°
2026-05-06 22:20 33.85985 -118.57288 8357 ft 283 kts 118°
2026-05-06 22:21 33.85391 -118.55080 9134 ft 277 kts 89°
2026-05-06 22:21 33.85761 -118.52837 9886 ft 275 kts 62°
2026-05-06 22:21 33.86855 -118.50977 10635 ft 275 kts 45°
2026-05-06 22:21 33.88235 -118.49353 11311 ft 279 kts 43°
2026-05-06 22:22 33.89675 -118.47705 11653 ft 298 kts 43°
2026-05-06 22:22 33.91217 -118.45914 11934 ft 316 kts 44°
2026-05-06 22:22 33.92804 -118.44026 12513 ft 323 kts 46°
2026-05-06 22:22 33.94188 -118.41874 13238 ft 327 kts 55°
2026-05-06 22:23 33.95429 -118.39620 14260 ft 318 kts 55°
2026-05-06 22:23 33.96649 -118.37407 15033 ft 318 kts 55°
2026-05-06 22:23 33.97897 -118.35175 15596 ft 324 kts 54°
2026-05-06 22:23 33.99166 -118.32927 16249 ft 326 kts 54°
2026-05-06 22:24 34.00447 -118.30664 16928 ft 328 kts 54°
2026-05-06 22:24 34.01743 -118.28378 17555 ft 332 kts 54°
2026-05-06 22:24 34.03053 -118.26070 18183 ft 335 kts 54°
2026-05-06 22:24 34.04373 -118.23742 18755 ft 338 kts 54°
2026-05-06 22:25 34.05707 -118.21388 19321 ft 340 kts 54°
2026-05-06 22:25 34.07043 -118.19027 19882 ft 343 kts 54°
2026-05-06 22:25 34.08390 -118.16646 20449 ft 345 kts 54°
2026-05-06 22:25 34.09747 -118.14248 20984 ft 348 kts 54°
2026-05-06 22:26 34.11115 -118.11826 21538 ft 350 kts 54°
2026-05-06 22:26 34.12494 -118.09384 22072 ft 353 kts 54°
2026-05-06 22:26 34.13880 -118.06927 22603 ft 356 kts 54°
2026-05-06 22:26 34.15276 -118.04452 23133 ft 358 kts 54°
2026-05-06 22:27 34.16681 -118.01957 23664 ft 361 kts 54°
2026-05-06 22:27 34.18099 -117.99438 24079 ft 363 kts 54°
2026-05-06 22:27 34.19523 -117.96907 24516 ft 365 kts 54°
2026-05-06 22:27 34.20950 -117.94367 24973 ft 366 kts 54°
2026-05-06 22:28 34.22382 -117.91817 25403 ft 368 kts 54°
2026-05-06 22:28 34.23823 -117.89249 25831 ft 371 kts 54°
2026-05-06 22:28 34.25275 -117.86659 26214 ft 373 kts 54°
2026-05-06 22:28 34.26735 -117.84055 26642 ft 375 kts 54°
2026-05-06 22:29 34.28203 -117.81433 27077 ft 377 kts 54°
2026-05-06 22:29 34.29683 -117.78787 27382 ft 381 kts 54°
2026-05-06 22:29 34.31169 -117.76130 27857 ft 381 kts 54°
2026-05-06 22:29 34.32654 -117.73473 28294 ft 382 kts 54°
2026-05-06 22:30 34.34146 -117.70800 28674 ft 384 kts 54°
2026-05-06 22:30 34.35654 -117.68118 29003 ft 387 kts 53°
2026-05-06 22:30 34.37217 -117.65460 29372 ft 388 kts 53°
2026-05-06 22:30 34.38809 -117.62811 29752 ft 390 kts 52°
2026-05-06 22:31 34.40413 -117.60154 30124 ft 392 kts 52°
2026-05-06 22:31 34.42006 -117.57512 30392 ft 395 kts 52°
2026-05-06 22:31 34.43625 -117.54817 30668 ft 397 kts 52°
2026-05-06 22:31 34.45247 -117.52108 30941 ft 399 kts 53°
2026-05-06 22:32 34.46875 -117.49380 31212 ft 401 kts 53°
2026-05-06 22:32 34.48515 -117.46627 31449 ft 404 kts 53°
2026-05-06 22:32 34.50160 -117.43861 31697 ft 406 kts 53°
2026-05-06 22:32 34.51811 -117.41081 31956 ft 407 kts 53°
2026-05-06 22:33 34.53470 -117.38286 32200 ft 409 kts 53°
2026-05-06 22:33 34.55138 -117.35473 32391 ft 412 kts 53°
2026-05-06 22:33 34.56815 -117.32644 32615 ft 414 kts 53°
2026-05-06 22:33 34.58497 -117.29803 32848 ft 415 kts 53°
2026-05-06 22:34 34.60185 -117.26950 33062 ft 417 kts 53°
2026-05-06 22:34 34.61886 -117.24073 33214 ft 420 kts 53°
2026-05-06 22:34 34.63587 -117.21193 33418 ft 422 kts 53°
2026-05-06 22:34 34.65305 -117.18283 33613 ft 423 kts 53°
2026-05-06 22:35 34.67022 -117.15371 33803 ft 425 kts 53°
2026-05-06 22:35 34.68748 -117.12442 33929 ft 428 kts 53°
2026-05-06 22:35 34.70484 -117.09494 34106 ft 429 kts 53°
2026-05-06 22:35 34.72227 -117.06530 34252 ft 431 kts 53°
2026-05-06 22:36 34.73973 -117.03559 34414 ft 433 kts 53°
2026-05-06 22:36 34.75727 -117.00574 34536 ft 435 kts 53°
2026-05-06 22:36 34.77488 -116.97573 34688 ft 437 kts 53°
2026-05-06 22:36 34.79253 -116.94562 34876 ft 437 kts 53°
2026-05-06 22:37 34.81014 -116.91555 35103 ft 437 kts 53°
2026-05-06 22:37 34.82779 -116.88540 35274 ft 438 kts 53°
2026-05-06 22:37 34.84543 -116.85522 35470 ft 438 kts 53°
2026-05-06 22:37 34.86309 -116.82500 35671 ft 437 kts 53°
2026-05-06 22:38 34.88068 -116.79486 35868 ft 438 kts 53°
2026-05-06 22:38 34.89837 -116.76454 35990 ft 439 kts 53°
2026-05-06 22:38 34.91605 -116.73431 36151 ft 439 kts 52°
2026-05-06 22:38 34.93558 -116.70571 36340 ft 437 kts 46°
2026-05-06 22:39 34.95620 -116.67851 36528 ft 437 kts 46°
2026-05-06 22:39 34.97705 -116.65146 36624 ft 439 kts 46°
2026-05-06 22:39 34.99796 -116.62437 36763 ft 439 kts 46°
2026-05-06 22:39 35.01886 -116.59718 36951 ft 438 kts 46°
2026-05-06 22:40 35.06054 -116.54255 37016 ft 443 kts 46°
2026-05-06 22:40 35.10263 -116.48699 37023 ft 448 kts 46°
2026-05-06 22:41 35.16647 -116.40244 37013 ft 454 kts 46°
2026-05-06 22:42 35.20936 -116.34551 37018 ft 456 kts 46°
2026-05-06 22:42 35.25233 -116.28839 37006 ft 456 kts 46°
2026-05-06 22:43 35.29531 -116.23117 37004 ft 456 kts 46°
2026-05-06 22:43 35.33820 -116.17397 36995 ft 455 kts 47°
2026-05-06 22:44 35.37371 -116.12653 37001 ft 454 kts 47°
2026-05-06 22:44 35.41633 -116.06952 36999 ft 453 kts 47°
2026-05-06 22:45 35.45873 -116.01271 37021 ft 451 kts 47°
2026-05-06 22:45 35.50106 -115.95589 37013 ft 450 kts 47°
2026-05-06 22:46 35.54320 -115.89922 37028 ft 450 kts 47°
2026-05-06 22:46 35.58533 -115.84247 37021 ft 449 kts 47°
2026-05-06 22:47 35.62735 -115.78579 37038 ft 449 kts 47°
2026-05-06 22:47 35.66915 -115.72878 37034 ft 449 kts 47°
2026-05-06 22:48 35.71076 -115.67147 37044 ft 449 kts 47°
2026-05-06 22:48 35.75245 -115.61396 37031 ft 450 kts 47°
2026-05-06 22:49 35.79419 -115.55636 37048 ft 451 kts 47°
2026-05-06 22:49 35.83591 -115.49872 37047 ft 452 kts 47°
2026-05-06 22:50 35.87778 -115.44076 37058 ft 452 kts 47°
2026-05-06 22:50 35.91962 -115.38275 37060 ft 453 kts 48°
2026-05-06 22:51 35.96152 -115.32455 37069 ft 454 kts 48°
2026-05-06 22:51 36.00349 -115.26613 37060 ft 455 kts 48°
2026-05-06 22:52 36.04544 -115.20767 37048 ft 455 kts 48°
2026-05-06 22:52 36.08676 -115.14854 37040 ft 455 kts 53°
2026-05-06 22:53 36.12333 -115.08456 37048 ft 456 kts 55°
2026-05-06 22:53 36.15880 -115.02012 36968 ft 456 kts 55°
2026-05-06 22:54 36.19463 -114.95536 36980 ft 456 kts 55°
2026-05-06 22:54 36.23091 -114.89025 36975 ft 456 kts 55°
2026-05-06 22:55 36.26699 -114.82562 36958 ft 456 kts 55°
2026-05-06 22:55 36.30308 -114.76089 36935 ft 456 kts 55°
2026-05-06 22:56 36.33855 -114.69711 36935 ft 456 kts 55°
2026-05-06 22:56 36.37453 -114.63229 36907 ft 456 kts 55°
2026-05-06 22:57 36.41050 -114.56736 36911 ft 456 kts 55°
2026-05-06 22:57 36.44641 -114.50241 36895 ft 456 kts 55°
2026-05-06 22:58 36.48231 -114.43737 36911 ft 456 kts 55°
2026-05-06 22:58 36.51814 -114.37231 36902 ft 456 kts 55°
2026-05-06 22:59 36.55394 -114.30720 36919 ft 456 kts 55°
2026-05-06 22:59 36.58967 -114.24209 36908 ft 456 kts 55°
2026-05-06 23:00 36.62541 -114.17682 36919 ft 456 kts 55°
2026-05-06 23:00 36.66106 -114.11161 36918 ft 456 kts 55°
2026-05-06 23:01 36.69677 -114.04614 36925 ft 457 kts 56°
2026-05-06 23:01 36.73220 -113.98109 36931 ft 457 kts 56°
2026-05-06 23:02 36.76806 -113.91508 36300 ft 456 kts 54°
2026-05-06 23:02 36.78574 -113.88254 36978 ft 454 kts 56°
2026-05-06 23:02 36.80323 -113.85027 36949 ft 455 kts 56°
2026-05-06 23:03 36.83882 -113.78453 36969 ft 459 kts 56°
2026-05-06 23:03 36.87466 -113.71818 36987 ft 462 kts 56°
2026-05-06 23:04 36.91063 -113.65148 36988 ft 463 kts 56°
2026-05-06 23:04 36.94652 -113.58478 37007 ft 461 kts 56°
2026-05-06 23:05 36.98242 -113.51795 37003 ft 459 kts 56°
2026-05-06 23:05 37.01750 -113.45251 37007 ft 453 kts 56°
2026-05-06 23:06 37.05254 -113.38700 36999 ft 447 kts 56°
2026-05-06 23:06 37.08685 -113.32275 37005 ft 448 kts 56°
2026-05-06 23:07 37.12165 -113.25746 36992 ft 453 kts 56°
2026-05-06 23:07 37.15681 -113.19136 37046 ft 458 kts 56°
2026-05-06 23:08 37.19222 -113.12466 37028 ft 461 kts 56°
2026-05-06 23:08 37.22767 -113.05773 37027 ft 461 kts 56°
2026-05-06 23:09 37.26299 -112.99092 36998 ft 457 kts 56°
2026-05-06 23:09 37.29788 -112.92479 36987 ft 451 kts 56°
2026-05-06 23:10 37.33235 -112.85934 36972 ft 448 kts 56°
2026-05-06 23:10 37.36661 -112.79416 36986 ft 445 kts 55°
2026-05-06 23:11 37.40067 -112.72924 36996 ft 445 kts 55°
2026-05-06 23:11 37.43469 -112.66426 37000 ft 445 kts 55°
2026-05-06 23:12 37.46875 -112.59908 36987 ft 445 kts 55°
2026-05-06 23:12 37.50284 -112.53371 37009 ft 449 kts 55°
2026-05-06 23:13 37.53729 -112.46754 37024 ft 454 kts 55°
2026-05-06 23:13 37.57196 -112.40077 37085 ft 457 kts 55°
2026-05-06 23:14 37.60677 -112.33361 37122 ft 458 kts 55°
2026-05-06 23:14 37.64183 -112.26676 37169 ft 455 kts 52°
2026-05-06 23:15 37.68030 -112.20393 37185 ft 449 kts 50°
2026-05-06 23:15 37.71936 -112.14297 37193 ft 444 kts 49°
2026-05-06 23:16 37.75779 -112.08234 37190 ft 440 kts 50°
2026-05-06 23:16 37.79587 -112.02147 37178 ft 443 kts 50°
2026-05-06 23:17 37.83424 -111.95974 37122 ft 449 kts 50°
2026-05-06 23:17 37.87286 -111.89743 37074 ft 452 kts 50°
2026-05-06 23:18 37.91162 -111.83477 37020 ft 452 kts 50°
2026-05-06 23:18 37.95045 -111.77190 36991 ft 452 kts 50°
2026-05-06 23:19 37.98915 -111.70914 36991 ft 451 kts 50°
2026-05-06 23:19 38.02770 -111.64650 37000 ft 450 kts 50°
2026-05-06 23:20 38.06611 -111.58396 37000 ft 449 kts 50°
2026-05-06 23:20 38.10417 -111.52187 37002 ft 448 kts 50°
2026-05-06 23:21 38.14236 -111.45946 36997 ft 447 kts 50°
2026-05-06 23:21 38.17950 -111.39864 37007 ft 446 kts 50°
2026-05-06 23:22 38.21726 -111.33670 36988 ft 446 kts 50°
2026-05-06 23:22 38.25523 -111.27429 37000 ft 446 kts 50°
2026-05-06 23:23 38.29308 -111.21196 36985 ft 445 kts 50°
2026-05-06 23:23 38.33090 -111.14956 36989 ft 445 kts 50°
2026-05-06 23:24 38.36865 -111.08715 37014 ft 444 kts 50°
2026-05-06 23:24 38.40635 -111.02471 37045 ft 444 kts 50°
2026-05-06 23:25 38.44402 -110.96220 37067 ft 444 kts 50°
2026-05-06 23:25 38.48167 -110.89961 37096 ft 444 kts 50°
2026-05-06 23:26 38.51928 -110.83696 37104 ft 445 kts 50°
2026-05-06 23:26 38.55052 -110.78482 37108 ft 445 kts 50°
2026-05-06 23:27 38.58810 -110.72199 37097 ft 445 kts 50°
2026-05-06 23:27 38.62563 -110.65913 37087 ft 445 kts 50°
2026-05-06 23:28 38.66315 -110.59616 37060 ft 445 kts 50°
2026-05-06 23:28 38.70065 -110.53310 37036 ft 445 kts 50°
2026-05-06 23:29 38.73813 -110.46994 37015 ft 445 kts 50°
2026-05-06 23:29 38.77557 -110.40674 37026 ft 445 kts 50°
2026-05-06 23:30 38.81298 -110.34346 37015 ft 445 kts 50°
2026-05-06 23:30 38.85030 -110.28021 37030 ft 444 kts 50°
2026-05-06 23:31 38.88751 -110.21702 37026 ft 444 kts 50°
2026-05-06 23:31 38.92466 -110.15380 37038 ft 443 kts 50°
2026-05-06 23:32 38.96174 -110.09058 37045 ft 443 kts 50°
2026-05-06 23:32 38.99878 -110.02730 37058 ft 442 kts 50°
2026-05-06 23:33 39.03572 -109.96408 37061 ft 442 kts 50°
2026-05-06 23:33 39.07154 -109.89986 37077 ft 442 kts 52°
2026-05-06 23:34 39.10559 -109.83379 37069 ft 443 kts 53°
2026-05-06 23:34 39.13940 -109.76764 37092 ft 442 kts 53°
2026-05-06 23:35 39.17318 -109.70199 37093 ft 442 kts 52°
2026-05-06 23:35 39.20727 -109.63595 37097 ft 443 kts 52°
2026-05-06 23:36 39.24130 -109.56993 36979 ft 438 kts 51°
2026-05-06 23:36 39.25788 -109.53765 36995 ft 427 kts 51°
2026-05-06 23:36 39.27407 -109.50607 37055 ft 419 kts 51°
2026-05-06 23:37 39.30630 -109.44336 37111 ft 421 kts 51°
2026-05-06 23:37 39.33897 -109.37982 37116 ft 427 kts 51°
2026-05-06 23:38 39.37185 -109.31561 37113 ft 430 kts 51°
2026-05-06 23:38 39.40486 -109.25091 37103 ft 431 kts 51°
2026-05-06 23:39 39.43762 -109.18653 37096 ft 426 kts 51°
2026-05-06 23:39 39.46999 -109.12282 37103 ft 422 kts 51°
2026-05-06 23:40 39.50208 -109.05958 37087 ft 419 kts 51°
2026-05-06 23:40 39.53395 -108.99666 37121 ft 417 kts 51°
2026-05-06 23:41 39.56593 -108.93346 37115 ft 423 kts 51°
2026-05-06 23:41 39.59830 -108.86933 37114 ft 426 kts 51°
2026-05-06 23:42 39.63083 -108.80469 37105 ft 429 kts 51°
2026-05-06 23:42 39.66345 -108.73974 37120 ft 431 kts 51°
2026-05-06 23:43 39.69599 -108.67477 37124 ft 427 kts 51°
2026-05-06 23:43 39.72825 -108.61025 37120 ft 424 kts 51°
2026-05-06 23:44 39.76021 -108.54622 37123 ft 421 kts 51°
2026-05-06 23:44 39.79198 -108.48247 37114 ft 420 kts 51°
2026-05-06 23:45 39.82388 -108.41839 37123 ft 425 kts 51°
2026-05-06 23:45 39.85626 -108.35320 37130 ft 431 kts 51°
2026-05-06 23:46 39.88868 -108.28772 37127 ft 435 kts 51°
2026-05-06 23:46 39.92168 -108.22088 37133 ft 436 kts 51°
2026-05-06 23:47 39.95424 -108.15482 37142 ft 436 kts 51°
2026-05-06 23:47 39.98697 -108.08828 37157 ft 435 kts 52°
2026-05-06 23:48 40.01953 -108.02194 37171 ft 434 kts 52°
2026-05-06 23:48 40.05204 -107.95562 37179 ft 433 kts 52°
2026-05-06 23:49 40.08386 -107.88904 37162 ft 433 kts 53°
2026-05-06 23:49 40.11376 -107.82093 37168 ft 432 kts 54°
2026-05-06 23:50 40.14330 -107.75269 37159 ft 431 kts 54°
2026-05-06 23:50 40.18777 -107.65076 37154 ft 430 kts 54°
2026-05-06 23:51 40.21744 -107.58295 37154 ft 430 kts 54°
2026-05-06 23:51 40.24717 -107.51493 37163 ft 430 kts 54°
2026-05-06 23:52 40.27687 -107.44681 37171 ft 431 kts 54°
2026-05-06 23:52 40.30657 -107.37853 37166 ft 432 kts 54°
2026-05-06 23:53 40.33627 -107.31011 37175 ft 432 kts 54°
2026-05-06 23:53 40.36596 -107.24153 37180 ft 433 kts 54°
2026-05-06 23:54 40.39568 -107.17273 37183 ft 434 kts 54°
2026-05-06 23:54 40.42543 -107.10371 37170 ft 434 kts 54°
2026-05-06 23:55 40.45511 -107.03467 37179 ft 434 kts 54°
2026-05-06 23:55 40.48479 -106.96552 37166 ft 435 kts 54°
2026-05-06 23:56 40.51445 -106.89622 37158 ft 435 kts 54°
2026-05-06 23:56 40.54413 -106.82673 37156 ft 436 kts 54°
2026-05-06 23:57 40.57382 -106.75707 37147 ft 437 kts 54°
2026-05-06 23:57 40.60345 -106.68736 37161 ft 437 kts 54°
2026-05-06 23:58 40.63301 -106.61765 37158 ft 436 kts 55°
2026-05-06 23:58 40.66256 -106.54782 37156 ft 437 kts 54°
2026-05-06 23:59 40.69212 -106.47784 37155 ft 437 kts 54°
2026-05-06 23:59 40.72148 -106.40814 37156 ft 438 kts 54°
2026-05-07 00:00 40.75099 -106.33794 37151 ft 438 kts 55°
2026-05-07 00:00 40.77577 -106.27886 37151 ft 439 kts 55°
2026-05-07 00:01 40.81011 -106.19677 37137 ft 440 kts 55°
2026-05-07 00:01 40.83962 -106.12606 37150 ft 440 kts 54°
2026-05-07 00:02 40.86918 -106.05507 37161 ft 441 kts 55°
2026-05-07 00:02 40.89869 -105.98402 37150 ft 442 kts 55°
2026-05-07 00:03 40.92818 -105.91285 37150 ft 442 kts 55°
2026-05-07 00:03 40.95768 -105.84149 37150 ft 442 kts 55°
2026-05-07 00:04 40.98718 -105.76998 37140 ft 443 kts 55°
2026-05-07 00:04 41.01666 -105.69831 37139 ft 443 kts 55°
2026-05-07 00:05 41.04609 -105.62659 37137 ft 443 kts 55°
2026-05-07 00:05 41.07554 -105.55467 37139 ft 444 kts 55°
2026-05-07 00:06 41.10491 -105.48277 37131 ft 443 kts 56°
2026-05-07 00:06 41.13419 -105.41091 37140 ft 443 kts 56°
2026-05-07 00:07 41.16349 -105.33882 37149 ft 443 kts 56°
2026-05-07 00:07 41.19274 -105.26668 37153 ft 443 kts 56°
2026-05-07 00:08 41.22194 -105.19450 37154 ft 444 kts 56°
2026-05-07 00:08 41.25107 -105.12232 37146 ft 444 kts 56°
2026-05-07 00:09 41.28024 -105.04986 37199 ft 446 kts 56°
2026-05-07 00:09 41.29488 -105.01345 37391 ft 446 kts 56°
2026-05-07 00:09 41.30944 -104.97714 37571 ft 445 kts 56°
2026-05-07 00:10 41.32403 -104.94076 37695 ft 447 kts 56°
2026-05-07 00:10 41.33373 -104.91654 37769 ft 448 kts 56°
2026-05-07 00:10 41.34837 -104.87993 37904 ft 448 kts 56°
2026-05-07 00:10 41.36301 -104.84330 38041 ft 449 kts 56°
2026-05-07 00:11 41.38247 -104.79450 38204 ft 450 kts 56°
2026-05-07 00:11 41.39714 -104.75769 38328 ft 451 kts 57°
2026-05-07 00:11 41.42658 -104.68364 38567 ft 453 kts 57°
2026-05-07 00:12 41.45133 -104.62123 38756 ft 455 kts 57°
2026-05-07 00:12 41.48071 -104.54701 38931 ft 456 kts 57°
2026-05-07 00:13 41.49571 -104.50902 39034 ft 456 kts 57°
2026-05-07 00:13 41.51047 -104.47158 39098 ft 456 kts 57°
2026-05-07 00:13 41.54006 -104.39645 39123 ft 458 kts 57°
2026-05-07 00:14 41.56964 -104.32111 39108 ft 458 kts 57°
2026-05-07 00:14 41.59896 -104.24625 39096 ft 458 kts 57°
2026-05-07 00:15 41.62846 -104.17073 39097 ft 458 kts 58°
2026-05-07 00:15 41.65786 -104.09528 39095 ft 458 kts 58°
2026-05-07 00:16 41.68724 -104.01969 39091 ft 458 kts 58°
2026-05-07 00:16 41.71656 -103.94405 39084 ft 458 kts 58°
2026-05-07 00:17 41.74583 -103.86834 39076 ft 458 kts 58°
2026-05-07 00:17 41.77510 -103.79245 39066 ft 458 kts 58°
2026-05-07 00:18 41.80433 -103.71647 39056 ft 459 kts 58°
2026-05-07 00:18 41.83349 -103.64043 39059 ft 459 kts 58°
2026-05-07 00:19 41.86266 -103.56418 39061 ft 460 kts 58°
2026-05-07 00:19 41.89184 -103.48774 39062 ft 460 kts 58°
2026-05-07 00:20 41.91959 -103.41071 39062 ft 462 kts 60°
2026-05-07 00:20 41.94625 -103.33204 39066 ft 463 kts 61°
2026-05-07 00:21 41.97287 -103.25325 39068 ft 463 kts 61°
2026-05-07 00:21 41.99972 -103.17434 39060 ft 464 kts 60°
2026-05-07 00:22 42.02661 -103.09545 39053 ft 464 kts 60°
2026-05-07 00:22 42.05348 -103.01651 39049 ft 464 kts 60°
2026-05-07 00:23 42.08031 -102.93745 39040 ft 464 kts 61°
2026-05-07 00:23 42.10708 -102.85829 39037 ft 465 kts 61°
2026-05-07 00:24 42.13380 -102.77907 39041 ft 465 kts 61°
2026-05-07 00:24 42.16048 -102.69972 39041 ft 465 kts 61°
2026-05-07 00:25 42.18708 -102.62040 39043 ft 465 kts 61°
2026-05-07 00:25 42.21366 -102.54090 39050 ft 465 kts 61°
2026-05-07 00:26 42.24018 -102.46134 39042 ft 465 kts 61°
2026-05-07 00:26 42.26669 -102.38158 39063 ft 466 kts 61°
2026-05-07 00:27 42.29296 -102.30235 39056 ft 466 kts 61°
2026-05-07 00:27 42.31947 -102.22213 39053 ft 467 kts 62°
2026-05-07 00:28 42.34592 -102.14184 39061 ft 468 kts 62°
2026-05-07 00:28 42.37234 -102.06141 39056 ft 469 kts 62°
2026-05-07 00:29 42.39877 -101.98072 39058 ft 469 kts 62°
2026-05-07 00:30 42.45161 -101.81868 39057 ft 471 kts 62°
2026-05-07 00:30 42.47797 -101.73745 39059 ft 472 kts 62°
2026-05-07 00:31 42.50433 -101.65599 39064 ft 473 kts 62°
2026-05-07 00:31 42.53069 -101.57430 39060 ft 473 kts 62°
2026-05-07 00:32 42.55701 -101.49246 39063 ft 474 kts 62°
2026-05-07 00:32 42.58335 -101.41033 39064 ft 475 kts 62°
2026-05-07 00:33 42.60968 -101.32796 39062 ft 476 kts 62°
2026-05-07 00:33 42.63598 -101.24543 39058 ft 476 kts 62°
2026-05-07 00:34 42.66222 -101.16284 39063 ft 477 kts 62°
2026-05-07 00:34 42.68827 -101.08058 39059 ft 477 kts 62°
2026-05-07 00:35 42.71443 -100.99772 39064 ft 477 kts 62°
2026-05-07 00:35 42.74056 -100.91470 39061 ft 478 kts 62°
2026-05-07 00:36 42.76666 -100.83152 39064 ft 478 kts 63°
2026-05-07 00:36 42.79271 -100.74825 39065 ft 478 kts 63°
2026-05-07 00:37 42.81870 -100.66488 39056 ft 478 kts 63°
2026-05-07 00:37 42.84466 -100.58135 39061 ft 478 kts 63°
2026-05-07 00:38 42.87053 -100.49784 39061 ft 479 kts 63°
2026-05-07 00:38 42.89635 -100.41423 39060 ft 479 kts 63°
2026-05-07 00:39 42.92217 -100.33037 39061 ft 479 kts 63°
2026-05-07 00:39 42.94792 -100.24646 39065 ft 480 kts 63°
2026-05-07 00:40 42.97364 -100.16237 39065 ft 480 kts 63°
2026-05-07 00:40 42.99930 -100.07821 39067 ft 481 kts 63°
2026-05-07 00:41 43.02510 -99.99330 39065 ft 481 kts 63°
2026-05-07 00:41 43.05073 -99.90867 39064 ft 482 kts 63°
2026-05-07 00:42 43.07632 -99.82392 39062 ft 483 kts 63°
2026-05-07 00:42 43.10174 -99.73945 39066 ft 483 kts 63°
2026-05-07 00:43 43.12730 -99.65424 39061 ft 484 kts 63°
2026-05-07 00:43 43.15283 -99.56884 39063 ft 485 kts 63°
2026-05-07 00:44 43.17834 -99.48322 39064 ft 486 kts 63°
2026-05-07 00:44 43.20380 -99.39746 39069 ft 486 kts 64°
2026-05-07 00:45 43.22923 -99.31153 39066 ft 487 kts 64°
2026-05-07 00:45 43.25466 -99.22532 39071 ft 488 kts 64°
2026-05-07 00:46 43.28003 -99.13903 39068 ft 488 kts 64°
2026-05-07 00:46 43.30537 -99.05250 39066 ft 489 kts 64°
2026-05-07 00:47 43.33067 -98.96585 39065 ft 489 kts 64°
2026-05-07 00:47 43.35594 -98.87900 39061 ft 490 kts 64°
2026-05-07 00:48 43.38115 -98.79207 39058 ft 490 kts 64°
2026-05-07 00:48 43.40634 -98.70488 39063 ft 491 kts 64°
2026-05-07 00:49 43.43148 -98.61760 39065 ft 491 kts 64°
2026-05-07 00:49 43.45654 -98.53025 39065 ft 491 kts 64°
2026-05-07 00:50 43.48157 -98.44273 39060 ft 491 kts 64°
2026-05-07 00:50 43.50652 -98.35517 39061 ft 491 kts 65°
2026-05-07 00:51 43.53143 -98.26744 39050 ft 492 kts 65°
2026-05-07 00:51 43.55628 -98.17963 39048 ft 492 kts 65°
2026-05-07 00:52 43.58107 -98.09172 39041 ft 492 kts 65°
2026-05-07 00:52 43.60581 -98.00369 39039 ft 492 kts 65°
2026-05-07 00:53 43.63046 -97.91564 39042 ft 492 kts 65°
2026-05-07 00:53 43.65510 -97.82731 39044 ft 493 kts 65°
2026-05-07 00:54 43.67967 -97.73892 39047 ft 493 kts 65°
2026-05-07 00:54 43.70420 -97.65035 39053 ft 494 kts 65°
2026-05-07 00:55 43.72454 -97.57667 39053 ft 494 kts 65°
2026-05-07 00:55 43.74897 -97.48790 39051 ft 494 kts 65°
2026-05-07 00:56 43.77335 -97.39895 39058 ft 494 kts 66°
2026-05-07 00:56 43.79766 -97.30995 39043 ft 495 kts 66°
2026-05-07 00:57 43.82195 -97.22071 39037 ft 495 kts 66°
2026-05-07 00:57 43.84615 -97.13149 39028 ft 495 kts 66°
2026-05-07 00:58 43.87030 -97.04207 39024 ft 496 kts 66°
2026-05-07 00:58 43.89440 -96.95252 39025 ft 496 kts 66°
2026-05-07 00:59 43.93045 -96.81799 39037 ft 496 kts 66°
2026-05-07 01:00 43.95439 -96.72818 39047 ft 496 kts 66°
2026-05-07 01:00 43.97826 -96.63833 39053 ft 496 kts 66°
2026-05-07 01:01 44.00209 -96.54831 39042 ft 497 kts 66°
2026-05-07 01:01 44.02586 -96.45817 39034 ft 497 kts 67°
2026-05-07 01:02 44.04955 -96.36796 39021 ft 497 kts 67°
2026-05-07 01:02 44.07319 -96.27763 39031 ft 497 kts 67°
2026-05-07 01:03 44.09676 -96.18719 39043 ft 498 kts 67°
2026-05-07 01:03 44.12028 -96.09660 39053 ft 498 kts 67°
2026-05-07 01:04 44.14380 -96.00574 38924 ft 502 kts 67°
2026-05-07 01:04 44.15567 -95.95989 38688 ft 504 kts 66°
2026-05-07 01:04 44.16979 -95.91540 38418 ft 497 kts 59°
2026-05-07 01:04 44.18605 -95.87324 38152 ft 492 kts 57°
2026-05-07 01:05 44.20307 -95.83195 37861 ft 491 kts 56°
2026-05-07 01:05 44.22020 -95.79086 37219 ft 490 kts 56°
2026-05-07 01:05 44.23711 -95.74973 36678 ft 488 kts 57°
2026-05-07 01:05 44.25370 -95.70857 36080 ft 488 kts 57°
2026-05-07 01:06 44.27017 -95.66702 35455 ft 489 kts 58°
2026-05-07 01:06 44.28653 -95.62533 34778 ft 491 kts 58°
2026-05-07 01:06 44.30286 -95.58345 34093 ft 493 kts 58°
2026-05-07 01:06 44.31922 -95.54138 33301 ft 494 kts 58°
2026-05-07 01:07 44.33561 -95.49920 32561 ft 494 kts 58°
2026-05-07 01:07 44.35196 -95.45710 31826 ft 494 kts 58°
2026-05-07 01:07 44.36836 -95.41484 31108 ft 493 kts 58°
2026-05-07 01:07 44.38469 -95.37274 30358 ft 493 kts 58°
2026-05-07 01:08 44.40100 -95.33061 29464 ft 493 kts 58°
2026-05-07 01:08 44.41714 -95.28883 29190 ft 479 kts 58°
2026-05-07 01:08 44.43259 -95.24876 28888 ft 468 kts 58°
2026-05-07 01:08 44.44776 -95.20939 28720 ft 455 kts 58°
2026-05-07 01:09 44.46218 -95.16970 28372 ft 448 kts 64°
2026-05-07 01:09 44.47280 -95.12935 27921 ft 446 kts 69°
2026-05-07 01:09 44.48210 -95.08809 27418 ft 443 kts 70°
2026-05-07 01:09 44.49092 -95.04706 26965 ft 439 kts 70°
2026-05-07 01:10 44.49974 -95.00628 26487 ft 436 kts 70°
2026-05-07 01:10 44.50882 -94.96524 26016 ft 433 kts 70°
2026-05-07 01:10 44.51773 -94.92580 25568 ft 430 kts 69°
2026-05-07 01:10 44.52685 -94.88601 25117 ft 427 kts 69°
2026-05-07 01:11 44.53594 -94.84658 24675 ft 425 kts 69°
2026-05-07 01:11 44.54503 -94.80721 24231 ft 423 kts 69°
2026-05-07 01:11 44.55406 -94.76806 23784 ft 421 kts 69°
2026-05-07 01:11 44.56302 -94.72913 23290 ft 419 kts 69°
2026-05-07 01:12 44.57191 -94.69039 22786 ft 417 kts 69°
2026-05-07 01:12 44.58073 -94.65186 22336 ft 413 kts 69°
2026-05-07 01:12 44.58946 -94.61363 21884 ft 410 kts 69°
2026-05-07 01:12 44.59814 -94.57556 21458 ft 407 kts 69°
2026-05-07 01:13 44.60674 -94.53782 21004 ft 405 kts 69°
2026-05-07 01:13 44.61527 -94.50030 20563 ft 402 kts 69°
2026-05-07 01:13 44.62375 -94.46293 20126 ft 400 kts 69°
2026-05-07 01:13 44.63217 -94.42578 19694 ft 398 kts 69°
2026-05-07 01:14 44.64052 -94.38890 19267 ft 396 kts 69°
2026-05-07 01:14 44.64881 -94.35213 18836 ft 394 kts 69°
2026-05-07 01:14 44.65706 -94.31554 18398 ft 393 kts 69°
2026-05-07 01:14 44.66527 -94.27902 17883 ft 392 kts 69°
2026-05-07 01:15 44.67345 -94.24256 17399 ft 390 kts 69°
2026-05-07 01:15 44.68160 -94.20635 16943 ft 387 kts 69°
2026-05-07 01:15 44.68969 -94.17047 16516 ft 384 kts 69°
2026-05-07 01:15 44.69772 -94.13478 16095 ft 382 kts 69°
2026-05-07 01:16 44.70567 -94.09935 15676 ft 379 kts 69°
2026-05-07 01:16 44.71357 -94.06414 15259 ft 377 kts 69°
2026-05-07 01:16 44.72141 -94.02917 14849 ft 374 kts 69°
2026-05-07 01:16 44.72922 -93.99426 14432 ft 372 kts 69°
2026-05-07 01:17 44.73694 -93.95974 14031 ft 370 kts 69°
2026-05-07 01:17 44.74463 -93.92529 13595 ft 368 kts 69°
2026-05-07 01:17 44.75225 -93.89108 13154 ft 366 kts 70°
2026-05-07 01:17 44.75984 -93.85704 12742 ft 363 kts 70°
2026-05-07 01:18 44.76737 -93.82331 12468 ft 356 kts 70°
2026-05-07 01:18 44.77470 -93.79042 12315 ft 347 kts 70°
2026-05-07 01:18 44.78183 -93.75840 12157 ft 338 kts 69°
2026-05-07 01:18 44.78875 -93.72724 12004 ft 330 kts 69°
2026-05-07 01:19 44.79550 -93.69685 11671 ft 329 kts 70°
2026-05-07 01:19 44.80228 -93.66624 11351 ft 327 kts 70°
2026-05-07 01:19 44.80901 -93.63584 11020 ft 325 kts 70°
2026-05-07 01:19 44.81573 -93.60541 10698 ft 324 kts 70°
2026-05-07 01:20 44.82238 -93.57524 10381 ft 322 kts 70°
2026-05-07 01:20 44.82899 -93.54523 10146 ft 318 kts 70°
2026-05-07 01:20 44.83546 -93.51579 10003 ft 311 kts 70°
2026-05-07 01:20 44.84177 -93.48701 9941 ft 301 kts 70°
2026-05-07 01:21 44.84790 -93.45879 9455 ft 307 kts 73°
2026-05-07 01:21 44.84920 -93.42914 9136 ft 304 kts 99°
2026-05-07 01:21 44.84207 -93.40155 8842 ft 297 kts 121°
2026-05-07 01:21 44.83144 -93.37697 8500 ft 293 kts 123°
2026-05-07 01:22 44.82046 -93.35256 8044 ft 293 kts 123°
2026-05-07 01:22 44.80982 -93.32863 7626 ft 291 kts 123°
2026-05-07 01:22 44.79924 -93.30451 7223 ft 288 kts 123°
2026-05-07 01:22 44.78875 -93.28046 6815 ft 286 kts 123°
2026-05-07 01:23 44.77838 -93.25666 6410 ft 284 kts 123°
2026-05-07 01:23 44.76806 -93.23300 5984 ft 282 kts 122°
2026-05-07 01:23 44.75782 -93.20954 5555 ft 280 kts 122°
2026-05-07 01:23 44.74766 -93.18638 5132 ft 276 kts 122°
2026-05-07 01:24 44.73766 -93.16348 4738 ft 273 kts 122°
2026-05-07 01:24 44.72779 -93.14089 4355 ft 269 kts 122°
2026-05-07 01:24 44.71806 -93.11870 4100 ft 261 kts 122°
2026-05-07 01:24 44.70883 -93.09753 4007 ft 247 kts 122°
2026-05-07 01:25 44.70125 -93.07646 3985 ft 238 kts 102°
2026-05-07 01:25 44.70161 -93.05409 3992 ft 224 kts 66°
2026-05-07 01:25 44.71084 -93.03794 4046 ft 212 kts 31°
2026-05-07 01:25 44.72327 -93.02636 3905 ft 215 kts 30°
2026-05-07 01:26 44.73576 -93.01484 3749 ft 214 kts 30°
2026-05-07 01:26 44.74806 -93.00346 3633 ft 209 kts 30°
2026-05-07 01:26 44.75990 -92.99248 3519 ft 198 kts 30°
2026-05-07 01:26 44.77118 -92.98231 3496 ft 190 kts 21°
2026-05-07 01:27 44.78361 -92.98107 3507 ft 178 kts 333°
2026-05-07 01:27 44.79155 -92.99327 3506 ft 172 kts 285°
2026-05-07 01:27 44.79372 -93.00937 3496 ft 166 kts 291°
2026-05-07 01:27 44.79880 -93.02360 3512 ft 163 kts 294°
2026-05-07 01:28 44.80352 -93.03776 3496 ft 156 kts 296°
2026-05-07 01:28 44.80865 -93.05113 3442 ft 156 kts 298°
2026-05-07 01:28 44.81402 -93.06450 3084 ft 159 kts 300°
2026-05-07 01:28 44.81987 -93.07751 2904 ft 153 kts 303°
2026-05-07 01:29 44.82554 -93.08980 2726 ft 151 kts 301°
2026-05-07 01:29 44.83098 -93.10261 2513 ft 154 kts 300°
2026-05-07 01:29 44.83654 -93.11557 2243 ft 152 kts 300°
2026-05-07 01:29 44.84181 -93.12788 2146 ft 145 kts 301°
2026-05-07 01:30 44.84703 -93.14006 1944 ft 145 kts 301°
2026-05-07 01:30 44.85213 -93.15214 1686 ft 144 kts 301°
2026-05-07 01:30 44.85739 -93.16398 1492 ft 141 kts 301°
2026-05-07 01:30 44.86260 -93.17587 1292 ft 145 kts 300°
2026-05-07 01:31 44.86779 -93.18805 1091 ft 143 kts 301°
2026-05-07 01:31 44.87297 -93.19993 919 ft 142 kts 301°
2026-05-07 01:31 44.87804 -93.21162 822 ft 132 kts 301°
2026-05-07 01:31 44.88201 -93.22081 824 ft 87 kts 301°
2026-05-07 01:32 44.88419 -93.22583 823 ft 41 kts 302°
2026-05-07 01:32 44.88485 -93.22811 823 ft 13 kts 225°
2026-05-07 01:32 44.88410 -93.22847 824 ft 11 kts 151°
2026-05-07 01:32 44.88363 -93.22753 820 ft 15 kts 122°
2026-05-07 01:33 44.88295 -93.22598 822 ft 20 kts 121°
2026-05-07 01:33 44.88225 -93.22433 824 ft 19 kts 121°
2026-05-07 01:33 44.88161 -93.22285 821 ft 16 kts 121°
2026-05-07 01:33 44.88097 -93.22199 825 ft 11 kts 192°
2026-05-07 01:34 44.88047 -93.22255 824 ft 10 kts 226°
2026-05-07 01:34 44.87994 -93.22334 823 ft 13 kts 226°
2026-05-07 01:34 44.87921 -93.22440 823 ft 18 kts 225°
2026-05-07 01:34 44.87826 -93.22576 821 ft 19 kts 225°
2026-05-07 01:35 44.87733 -93.22708 823 ft 17 kts 225°
2026-05-07 01:35 44.87651 -93.22823 822 ft 16 kts 225°
2026-05-07 01:35 44.87572 -93.22933 824 ft 15 kts 224°
2026-05-07 01:35 44.87506 -93.23027 823 ft 12 kts 226°
2026-05-07 01:36 44.87452 -93.23085 824 ft 9 kts 182°
2026-05-07 01:36 44.87404 -93.23045 824 ft 7 kts 135°
2026-05-07 01:36 44.87385 -93.23019 824 ft 1 kts 135°
2026-05-07 01:36 44.87382 -93.23014 823 ft 0 kts 134°
2026-05-07 01:37 44.87379 -93.23011 823 ft 0 kts 134°